Regional Weather Roundup
Issued by NWS

Home | Current Version | Previous Version | Graphics & Text | Print | Product List | Glossary On
Versions: 1 2 3 4 5 6 7 8 9 10 11 12 13 14 15 16 17 18 19 20 21 22 23 24 25 26 27 28 29 30 31 32 33 34 35 36 37 38 39 40 41 42 43 44 45 46 47 48 49 50
639
ASUS43 KFSD 170310
RWRSD

WEATHER ROUNDUP FOR SOUTH DAKOTA
NATIONAL WEATHER SERVICE SIOUX FALLS SD
900 PM CST TUE JAN 16 2018

NOTE: "FAIR" INDICATES FEW OR NO CLOUDS BELOW 12,000 FEET WITH NO
SIGNIFICANT WEATHER AND/OR OBSTRUCTIONS TO VISIBILITY.


SDZ001>005-009-010-012>017-170400-
NORTHWEST AND NORTH CENTRAL SOUTH DAKOTA

CITY           SKY/WX    TMP DP  RH WIND       PRES   REMARKS
BUFFALO          N/A      3  -4  72 S7        30.10F WCI  -9
FAITH            N/A      6   0  76 S23       30.21F WCI -15
MOBRIDGE       PTCLDY     8   0  69 SE13      30.30F WCI  -8
$$

SDZ012>016-024>037-041>051-057-063-072>074-170400-
SOUTHWEST AND SOUTH CENTRAL SOUTH DAKOTA

CITY           SKY/WX    TMP DP  RH WIND       PRES   REMARKS
RAPID CTY ARPT PTCLDY    15   5  64 SE6       30.20F WCI   6
PIERRE         CLEAR      8   2  76 SE8       30.36F WCI  -4
CUSTER         CLEAR     24 -16  16 W3        30.17F
ELLSWORTH AFB  PTCLDY    20   5  52 S7        30.18F WCI  11
PHILIP         CLEAR      8   3  80 E6        30.30F WCI  -2
PINE RIDGE     CLEAR     18   7  62 SW8       30.28F WCI   8
SPEARFISH        N/A     21   7  53 SW9       30.16F WCI  11
WINNER         FAIR      16   1  51 S21       30.38F WCI  -1
$$

SDZ004>011-016>023-039-040-170400-
NORTHEAST SOUTH DAKOTA

CITY           SKY/WX    TMP DP  RH WIND       PRES   REMARKS
ABERDEEN       CLEAR      2  -3  80 S14       30.44F WCI -16
WATERTOWN      CLOUDY    -1  -5  82 S10       30.44F WCI -17
BROOKINGS      CLOUDY    -2  -6  83 S7        30.50F WCI -15
SISSETON         N/A      8  -2  63 SW12      30.44F WCI  -7
$$

SDZ017-020-022-023-036>040-048>070-170400-
SOUTHEAST SOUTH DAKOTA

CITY           SKY/WX    TMP DP  RH WIND       PRES   REMARKS
SIOUX FALLS    CLOUDY     0  -3  87 SW6       30.53F WCI -12
HURON          CLEAR      2  -3  80 S9        30.49F WCI -13
CHAMBERLAIN    CLEAR      8   2  75 SE8       30.42F WCI  -4
MITCHELL       CLEAR      5  -3  69 S12       30.53F WCI -11
YANKTON        CLOUDY     1  -3  83 SE3       30.57F
$$

ABBREVIATIONS USED IN REMARKS
   TC - TEMPERATURE IN CELSIUS
  WCI - WIND CHILL INDEX
   HX - HEAT INDEX
  VSB - VISIBILITY





USA.gov is the U.S. government's official web portal to all federal, state and local government web resources and services.